sat.trackr.live / text

‹ back to catalog

STARLINK-2608

NORAD 48365 · 2021-038N

PAYLOAD ACTIVE UNKNOWN

§ Identity

Operator
Country
US
Launch date
2021-05-04
Launch site
AFETR
Launch vehicle
Mass (kg)
RCS (m²)

Purposes: comms

External: N2YO · Heavens-Above · Gunter

§ Orbital elements

Epoch: 2026-09-09T14:28:44.947200Z

Period
94.01 min
Inclination
53.1562°
Eccentricity
0.0002117
Mean motion
15.31706128 rev/d
Perigee alt
469.3 km
Apogee alt
472.2 km
Semi-major
6,848.9 km
B*
-1.8268e-5
RAAN
211.9728°
Arg perigee
93.2467°
Mean anomaly
266.8776°
Rev number
29,541

§ Raw data

STARLINK-26081 48365U 21038N   26252.60329800 -.00000933  00000+0 -18268-4 0  99902 48365  53.1562 211.9728 0002117  93.2467 266.8776 15.31706128295419

JSON: /api/v1/satellites/48365 · /tle

For live sub-satellite position, see the globe view (requires WebGL).

§ Visibility from observer

Set your observer location to see the next 7 days of passes ≥ 10°. The values pass through the URL so the page stays shareable.

No JS? Fill the form by hand. The geolocation button needs JavaScript.